Location: Unspecified
(0.0000°N, 0.0000°E)
Time: 10:19:40
(UTC+00:00)

Vanguard 3 - Pass Details

Date: 08 October 2022
Orbit: 509 x 3255 km, 33.3° (Epoch: 29 November)

Event Time Altitude Azimuth Distance (km) Brightness Sun altitude
Rises 18:42:31 0° 255° (WSW) 6,573 13.7 -13.7°
Reaches altitude 10° 18:48:31 10° 241° (WSW) 5,886 12.6 -15.2°
Maximum altitude 19:01:40 22° 197° (SSW) 5,227 11.5 -18.4°
Drops below altitude 10° 19:15:00 10° 153° (SSE) 5,913 11.3 -21.7°
Sets 19:21:10 0° 138° (SE) 6,601 11.5 -23.3°
